Location: ????????
(42.0252°N, 44.1904°E)
Time: 14:06:04
(UTC+00:00)

Daily predictions for brighter satellites

Satellite Brightness Start Highest point End
(mag) Time Altitude Azimuth Time Altitude Azimuth Time Altitude Azimuth
ASTEX 1 3.4 16:41:10 10° SSE 16:46:05 73° E 16:51:03 10° N
Cosmos 2333 Rocket 4.2 16:43:57 10° NNE 16:46:53 14° NE 16:49:50 10° ENE
USA 306 4.5 16:43:41 10° W 16:46:57 28° NW 16:49:31 10° NNE
CZ-4B R/B 3.9 16:44:56 10° SSE 16:48:54 65° ENE 16:52:55 10° N
CZ-4 R/B 1.3 16:45:21 10° SSE 16:48:54 56° ENE 16:52:28 10° N
Cosmos 1782 3.5 16:46:57 10° SSE 16:49:57 27° E 16:52:59 10° NNE
SL-4 R/B 3.9 16:47:11 10° W 16:50:01 20° SW 16:52:54 10° S
Cosmos 2173 Rocket 4.0 16:46:39 10° S 16:52:46 80° E 16:59:01 10° N
Cosmos 2016 Rocket 4.3 16:46:54 10° SSE 16:52:49 46° E 16:58:41 10° NNE
ERS-1 Rocket 3.3 16:48:05 10° SE 16:52:53 49° ENE 16:57:42 10° N
SL-24 R/B 4.2 16:51:34 10° NNE 16:55:58 87° W 17:00:15 10° SSW
CZ-4C R/B 3.1 16:52:38 10° WSW 16:56:33 43° NW 17:01:28 10° NNE
CZ-4B DEB 4.3 16:53:29 10° SSE 16:58:56 67° ENE 17:04:25 10° N
Cosmos 2360 Rocket 4.4 16:59:43 10° NNE 17:01:06 11° NE 17:02:29 10° NE
Cosmos 909 Rocket 4.2 16:55:35 10° S 17:01:47 51° ESE 17:07:53 10° NE
CZ-4B R/B 3.6 16:56:35 10° SE 17:02:01 51° ENE 17:07:27 10° N
Cosmos 1816 Rocket 4.5 16:57:25 10° N 17:03:34 71° E 17:09:43 10° SSE
Cosmos 1992 Rocket 4.5 17:03:14 10° S 17:08:01 38° ESE 17:12:49 10° NE
Longmarch 3A Rocket 4.0 17:04:08 10° WSW 17:09:47 17° SSW 17:12:36 10° SSE
NOSS 3-3 (A) 3.5 17:05:55 10° SSW 17:10:51 68° ESE 17:16:39 10° NE
Feng Yun 1-1 Rocket 4.2 17:09:31 10° SSE 17:14:54 88° ENE 17:20:22 10° NNW
Cosmos 1461 3.4 17:13:00 10° S 17:16:11 27° ESE 17:19:23 10° NE
BREEZE-M DEB (TANK) 3.7 17:14:49 10° W 17:17:13 35° SSW 17:21:15 12° SSE
Gbstr 26 Del rocket 3.3 17:14:57 10° WNW 17:20:09 72° SW 17:23:31 16° SE
BREEZE-M DEB (TANK) 3.2 17:17:37 10° WNW 17:20:32 82° NNE 17:26:56 14° ESE
Cosmos 1607 4.4 17:20:35 10° SW 17:26:39 65° NW 17:32:53 10° NNE
Cosmos 2061 Rocket 4.2 17:21:10 10° SSE 17:27:11 54° E 17:33:16 10° NNE
ISS -1.0 17:26:27 10° WNW 17:28:58 20° NNW 17:31:31 10° NE
SL-08 R/B 3.3 17:24:33 10° NNE 17:29:21 66° ESE 17:34:01 10° S
Cosmos 1437 Rocket 3.9 17:29:07 19° ESE 17:29:58 21° E 17:32:41 10° NE
IRS-1A Rocket 4.4 17:25:04 12° SSE 17:30:31 71° ENE 17:36:24 10° N
GEOS 3 Rocket 3.9 17:26:16 13° SSE 17:30:58 71° SW 17:36:21 10° NW
Terra 1.9 17:28:10 10° S 17:32:50 79° WSW 17:37:34 10° NNW
Cosmos 2322 Rocket 4.0 17:29:29 10° N 17:33:27 19° NE 17:37:12 11° E
Cosmos 1302 Rocket 4.3 17:28:41 10° SSW 17:33:49 69° WNW 17:39:00 10° NNE
Cosmos 2082 Rocket 2.5 17:28:40 10° SSW 17:34:22 73° WNW 17:40:06 10° NNE
Cosmos 1626 Rocket 4.4 17:30:49 10° N 17:34:48 34° ENE 17:37:02 21° SE
Cosmos 2237 4.4 17:29:08 10° NNW 17:34:51 64° ENE 17:39:00 19° SE
USA 305 3.2 17:31:46 10° WNW 17:35:42 47° SW 17:37:50 21° SSE
Cosmos 1802 Rocket 4.4 17:31:26 10° SSW 17:37:34 67° W 17:43:42 10° N
ADEOS 3.6 17:33:29 12° SSE 17:38:25 87° WSW 17:43:40 10° NNW
Cosmos 2369 3.7 17:35:20 10° NNW 17:41:05 81° ENE 17:45:15 19° SSE
NOSS 3-3 (C) 3.7 17:37:33 10° SW 17:42:37 85° WNW 17:48:39 10° NE
Cosmos 2151 3.9 17:40:59 10° NNE 17:44:36 29° ENE 17:46:01 23° ESE
Cosmos 1743 3.4 17:42:17 10° NNW 17:45:06 37° W 17:47:40 12° SSW
MOS 1-B 4.4 17:42:14 18° SSE 17:46:33 67° ENE 17:52:19 10° N
Delta 2 Rocket 3.9 17:47:12 10° SW 17:49:24 23° S 17:49:24 23° S
Helios 1A Rocket 4.5 17:50:07 10° N 17:52:49 27° WNW 17:55:31 10° SW
DELTA 2 R/B (1) 3.5 17:53:35 10° W 17:59:08 70° S 18:02:47 22° ESE
Okean O Rocket 1.5 17:56:47 25° SSE 17:59:17 90° W 18:03:36 10° NNW
CZ-4B R/B 3.3 18:00:19 31° E 18:00:52 33° ENE 18:03:59 10° N
SL-16 R/B 2.5 17:58:55 10° NNW 18:04:28 52° ENE 18:07:14 28° SE
Cosmos 2228 4.1 18:00:41 10° SSW 18:04:34 41° WNW 18:08:28 10° N
Cosmos 2233 Rocket 4.3 17:58:32 10° SSW 18:04:41 65° W 18:10:49 10° N
Cosmos 1891 Rocket 4.5 18:00:32 20° SSE 18:04:43 59° E 18:10:38 10° NNE
Cosmos 1544 Rocket 3.4 18:08:28 23° S 18:11:06 87° E 18:15:27 10° N
USA 186 1.6 18:10:49 54° SW 18:11:07 59° W 18:13:51 10° NNW
COSMOS 2406 3.4 18:09:21 10° SSW 18:15:05 73° WNW 18:20:51 10° NNE
Cosmos 1805 4.1 18:13:59 10° NNE 18:16:28 27° ENE 18:16:28 27° ENE
Cosmos 2084 Rocket 4.4 18:14:22 10° NW 18:18:16 37° WSW 18:19:50 27° SSW
BREEZE-M DEB (TANK) 4.1 18:16:28 10° WNW 18:18:58 20° NNW 18:20:40 10° NE
Cosmos 1980 Rocket 4.0 18:15:13 10° NW 18:19:45 25° WSW 18:24:14 10° SSW
Ariane Rocket 3.2 18:17:58 35° SE 18:19:48 54° ENE 18:24:44 10° N
Okean-O 3.1 18:17:41 25° SSW 18:20:02 54° W 18:24:20 10° NNW
SPOT 3 Rocket 3.5 18:20:37 36° SSE 18:22:46 75° ENE 18:27:54 10° N
BREEZE-M DEB (TANK) 2.5 18:18:14 10° WSW 18:22:58 70° NNW 18:23:51 36° NE
CZ-2C R/B 3.7 18:24:02 23° NE 18:24:02 23° NE 18:25:39 10° N
Nadezhda 4 Rocket 4.5 18:19:10 10° N 18:24:59 43° ENE 18:27:06 33° ESE
Meteor 1-20 Rocket 4.2 18:19:29 10° N 18:25:07 88° E 18:27:50 33° S
Spot 2 Rocket 4.2 18:22:02 20° SSW 18:25:16 48° W 18:30:08 10° NNW
Cosmos 1933 3.2 18:27:19 42° SSW 18:28:30 75° W 18:32:19 10° N
Cosmos 1758 Rocket 3.9 18:27:33 10° NNW 18:31:55 62° W 18:33:37 35° SSW
Cosmos 2333 Rocket 2.2 18:26:26 10° NNW 18:32:10 77° ENE 18:34:15 41° SE
Cosmos 1763 Rocket 3.9 18:33:32 40° ESE 18:34:00 41° ESE 18:38:56 10° NE
Milstar 3 4.5 18:34:03 10° WSW 18:39:08 20° SSW 18:39:43 20° S
Cosmos 1825 Rocket 3.8 18:40:58 10° N 18:45:11 49° E 18:45:21 49° E
Cosmos 2360 Rocket 2.4 18:40:45 10° NNW 18:46:21 58° ENE 18:47:55 43° ESE
CZ-4B R/B 3.3 18:45:46 51° S 18:46:58 80° WSW 18:51:49 10° NNW
Okean 1 3.9 18:48:21 40° NE 18:48:21 40° NE 18:50:57 10° NNE
Cosmos 1602 Rocket 3.8 18:51:53 10° NNW 18:56:08 59° W 18:56:50 51° SW
Cosmos 2058 Rocket 4.4 19:00:13 27° ENE 19:00:13 27° ENE 19:03:00 10° NNE
Meteor 1-25 Rocket 4.4 18:54:02 10° NNW 18:59:37 63° W 19:01:29 40° SSW
Cosmos 2219 Rocket 2.7 18:54:21 10° NNW 18:59:49 46° ENE 19:01:07 39° E
Cosmos 1777 Rocket 3.9 18:54:54 10° NNW 19:00:09 83° ENE 19:01:01 63° SSE
USA 290 3.8 19:07:21 33° N 19:07:21 33° N 19:09:20 10° N
ISS -0.9 19:04:27 10° NW 19:06:42 16° N 19:08:27 12° NE
Cosmos 1503 Rocket 3.8 19:03:22 10° NNW 19:08:34 75° ENE 19:09:08 67° ESE
Cosmos 2098 Rocket 3.8 19:07:46 37° SW 19:09:15 51° W 19:13:29 10° N
Cosmos 1464 Rocket 4.1 19:09:12 35° SSW 19:11:54 68° W 19:18:05 10° N
Helios 1A 4.0 19:08:39 10° NNE 19:11:05 32° NE 19:11:05 32° NE
Cosmos 1076 Rocket 3.6 19:11:01 10° N 19:14:52 68° NNE 19:14:52 68° NNE
Cosmos 2322 Rocket 2.1 19:12:25 10° NNW 19:18:05 74° WSW 19:18:59 61° S
Cosmos 1486 Rocket 4.2 19:14:27 10° NNW 19:19:37 58° WSW 19:20:20 53° SW
Cosmos 1354 Rocket 3.9 19:17:36 10° NNW 19:22:50 68° ENE 19:23:09 66° E
Cosmos 1606 Rocket 4.4 19:26:20 39° W 19:26:55 41° WNW 19:31:02 10° N
Cosmos 540 Rocket 3.7 19:33:38 53° WSW 19:34:34 64° WNW 19:39:42 10° NNE
Cosmos 1092 Rocket 3.9 19:28:49 10° N 19:35:00 73° E 19:35:51 64° SE
Cosmos 1726 Rocket 4.3 19:35:41 43° WNW 19:35:41 43° WNW 19:39:21 10° N
Meteor 1-26 Rocket 4.0 19:35:05 73° SSW 19:35:40 87° W 19:41:21 10° N
Cosmos 2237 Rocket 4.5 19:32:41 10° NNE 19:35:51 15° NE 19:38:44 11° ENE
Meteor 2-2 Rocket 4.1 19:40:15 77° S 19:40:43 87° E 19:46:29 10° N
Aureole 1 Rocket 4.1 19:35:27 10° NNW 19:41:24 67° ENE 19:42:31 57° ESE
DELTA 2 R/B (1) 4.5 19:39:55 10° W 19:43:28 35° WSW 19:43:28 35° WSW
COSMOS 2428 3.6 19:42:05 10° N 19:47:21 37° ENE 19:48:16 35° ENE
SL-16 R/B 3.8 19:43:50 10° NW 19:48:07 22° W 19:49:05 22° WSW
NOSS 3-4 (A) 4.1 19:42:49 10° NW 19:49:40 57° WSW 19:51:14 49° SSW
NOSS 3-4 (C) 4.1 19:43:26 10° NW 19:50:20 57° WSW 19:51:53 50° SSW
Cosmos 468 Rocket 3.9 19:50:33 84° WNW 19:50:33 84° WNW 19:55:49 10° NNE
Geosat 4.5 19:49:15 10° NNE 19:54:08 55° WNW 19:55:06 47° W
Cosmos-2242 4.0 19:57:48 42° NW 19:57:48 42° NW 20:01:03 10° N
USA 234 3.4 19:54:09 10° NE 19:59:51 51° ESE 19:59:51 51° ESE
Cosmos 2279 Rocket 3.8 20:08:45 78° SSE 20:09:12 86° E 20:15:29 10° N
ACS3 Solar Sail 4.0 20:09:39 10° ENE 20:10:11 10° E 20:10:22 10° E
Cosmos 1634 Rocket 4.2 20:13:08 55° WSW 20:14:02 61° W 20:20:11 10° N
CZ-2C R/B 4.3 20:09:15 10° NNE 20:13:51 33° E 20:13:51 33° E
Cosmos 2333 Rocket 4.3 20:12:37 10° WNW 20:15:42 15° W 20:16:16 15° WSW
Meteor 1-14 Rocket 4.2 20:11:28 10° N 20:16:48 74° NE 20:16:48 74° NE
SL-08 ROCKET BODY 4.3 20:12:10 10° N 20:18:22 87° W 20:18:40 82° SSW
Cosmos 2297 Rocket 3.0 20:19:59 38° ENE 20:19:59 38° ENE 20:24:08 10° NE
Helios 1B rocket 4.4 20:21:14 22° NW 20:21:14 22° NW 20:22:42 10° NNW
Cosmos 2221 3.7 20:22:50 38° N 20:22:50 38° N 20:25:30 10° N
Cosmos 1898 Rocket 3.7 20:17:13 10° NNW 20:21:54 68° NNE 20:21:54 68° NNE
CZ-2C R/B 4.4 20:22:40 10° N 20:26:14 52° NNW 20:26:14 52° NNW
Cosmos 44 4.0 20:24:20 10° NW 20:28:39 53° WNW 20:28:39 53° WNW
Cosmos 2360 Rocket 3.9 20:25:47 10° NW 20:29:39 20° W 20:29:39 20° W
Cosmos 2322 3.7 20:26:29 10° NNW 20:31:53 80° NNW 20:31:53 80° NNW
Cosmos 2266 Rocket 3.8 20:36:10 10° N 20:42:13 76° E 20:42:17 76° E
GP-B 4.2 20:38:46 10° N 20:41:42 40° NNE 20:41:42 40° NNE
Cosmos 2219 Rocket 3.7 20:38:50 10° NW 20:42:48 25° W 20:42:48 25° W
ISS -0.6 20:41:01 10° NW 20:41:23 12° NW 20:41:23 12° NW
Cosmos 841 Rocket 4.0 20:48:19 53° WNW 20:48:19 53° WNW 20:53:15 10° N
Meteor 1-19 Rocket 4.4 20:49:52 64° W 20:49:54 64° WNW 20:55:47 10° N
ARIANE 5 R/B 4.0 20:54:55 33° NW 20:54:55 33° NW 20:57:46 10° NNW
ALOS 2 3.9 20:56:35 36° NW 20:56:35 36° NW 20:59:25 10° NNW
RESURS DK-1 4.4 20:55:47 10° NW 20:57:22 22° NW 20:57:22 22° NW
SL-16 R/B 4.3 21:04:05 10° N 21:08:23 21° NE 21:11:57 13° E
Cosmos 1655 Rocket 4.1 21:03:54 10° N 21:10:06 62° E 21:10:33 60° ESE
Lacrosse 4 Rocket 3.1 21:16:34 30° NNE 21:16:34 30° NNE 21:18:41 10° NNE
CZ-2C R/B 2.7 21:17:31 73° NNE 21:17:31 73° NNE 21:22:16 10° NNW
Cosmos 2237 Rocket 2.2 21:15:06 10° NNW 21:20:30 79° NNE 21:20:30 79° NNE
Cosmos 1980 3.7 21:19:15 10° NNW 21:24:26 75° NW 21:24:26 75° NW
Iridium 4 Rocket 3.9 21:25:13 64° E 21:25:13 64° E 21:30:52 10° N
Cosmos 2227 Rocket 2.4 21:29:18 64° E 21:29:18 64° E 21:34:27 10° NNE
Meteor 2-4 Rocket 3.7 21:29:47 72° NW 21:29:47 72° NW 21:34:55 10° N
Cosmos 1932 4.5 21:31:00 71° SE 21:31:07 71° ESE 21:37:39 10° NE
COSMOS 2428 3.9 21:26:27 10° NW 21:30:13 30° W 21:30:13 30° W
NOSS 0 Rocket 4.5 21:26:23 10° NW 21:31:29 45° W 21:31:29 45° W
Cosmos 2263 Rocket 2.7 21:39:15 49° E 21:39:15 49° E 21:44:12 10° NE
BREEZE-M DEB (TANK) 4.5 21:19:51 10° WNW 21:40:18 82° SW 21:42:03 53° SE
ATLAS 5 CENTAUR R/B 3.4 21:40:01 56° SE 21:40:32 58° ESE 21:55:12 10° NE
USA 234 3.9 21:37:14 10° NE 21:43:31 51° NNW 21:47:10 25° W
Cosmos 1151 Rocket 4.3 21:48:34 35° ENE 21:48:34 35° ENE 21:51:42 10° NNE
SeaSat 1 2.6 21:49:01 68° NE 21:49:01 68° NE 21:53:45 10° NNW
ACS3 Solar Sail 1.6 21:47:25 10° NNE 21:53:26 76° E 21:53:51 73° SE
CZ-2C R/B 4.2 21:48:57 10° N 21:54:10 37° WNW 21:54:49 35° W
Cosmos 1500 Rocket 4.5 21:56:01 10° N 21:59:56 44° ENE 21:59:56 44° ENE
Cosmos 2297 Rocket 3.5 22:01:44 27° WNW 22:02:58 29° NW 22:07:52 10° N
BlueWalker 3 3.8 22:07:42 26° N 22:07:42 26° N 22:10:01 10° NE
Nadezhda 2 Rocket 4.3 22:03:23 10° N 22:09:34 90° E 22:10:23 70° S
Cosmos 1125 Rocket 4.0 22:04:25 10° NNW 22:09:37 54° ENE 22:10:39 46° ESE
Cosmos 2082 4.3 22:11:15 42° ESE 22:11:38 42° ESE 22:16:54 10° NE
Okean 3 Rocket 4.2 22:08:34 10° NNW 22:12:07 53° NNW 22:12:07 53° NNW
Meteor 2-10 Rocket 4.0 22:10:56 10° NNW 22:16:03 51° W 22:16:03 51° W
Cosmos 1553 Rocket 3.9 22:16:07 64° SW 22:16:58 73° W 22:23:24 10° N
Cosmos 1340 Rocket 3.8 22:15:54 10° N 22:18:42 43° NNE 22:18:42 43° NNE
Sich 1 4.2 22:19:47 10° NNW 22:22:23 33° NW 22:22:23 33° NW
Atlas Centaur 2 4.0 22:29:10 25° SE 22:29:10 25° SE 22:33:32 10° ESE
BREEZE-M DEB (TANK) 3.8 22:14:57 10° WSW 22:28:26 61° NNW 22:32:33 10° NE
Cosmos 1805 Rocket 3.9 22:24:40 10° N 22:28:13 58° NNW 22:28:13 58° NNW
SL-08 R/B 4.5 22:26:04 10° NNW 22:32:17 63° W 22:33:06 57° SW
CENTAUR R/B 3.2 22:32:14 31° SE 22:33:04 33° ESE 22:38:36 10° NE
Cosmos 1743 Rocket 3.7 22:29:40 10° N 22:33:48 66° ENE 22:33:48 66° ENE
Cosmos 1386 Rocket 4.4 22:31:39 10° N 22:37:59 77° W 22:39:24 56° SSW
Cosmos 2208 Rocket 4.4 22:38:38 48° SE 22:39:27 53° ESE 22:44:35 10° NNE
Cosmos 1953 3.5 22:36:26 10° N 22:39:47 33° ENE 22:39:50 33° E
IDEFIX/ARIANE 42P 2.6 22:36:19 10° NNE 22:41:33 69° ESE 22:42:24 58° SSE
FENGYUN 3A 4.1 22:38:29 10° NNE 22:43:47 54° E 22:45:06 43° SE
CZ-2D R/B 4.2 22:45:47 10° NE 22:49:41 20° E 22:53:17 11° SE
Cosmos 1745 Rocket 3.8 22:45:31 10° N 22:51:39 79° W 22:53:22 50° S
Cosmos 2219 3.1 22:51:04 59° SW 22:52:08 76° WNW 22:57:47 10° NNE
Cosmos 2084 3.4 22:48:36 10° NNW 22:52:43 76° NE 22:52:43 76° NE
Cosmos 1408 Rocket 4.5 22:48:44 10° NNW 22:51:52 36° WNW 22:51:52 36° WNW
SL-16 R/B 2.1 22:47:20 10° NNW 22:52:58 65° WSW 22:53:44 58° SSW
Lacrosse 4 Rocket 3.9 22:51:57 10° WNW 22:53:02 11° NW 22:54:14 10° NNW
Cosmos 1328 Rocket 3.7 22:56:34 57° SE 22:57:06 62° E 23:01:28 10° NNE
NPP 3.7 22:52:42 10° NNE 22:58:07 74° ESE 22:59:35 49° S
Envisat 4.4 22:56:56 10° NE 23:01:25 31° E 23:03:58 20° SE
Cosmos 2237 Rocket 4.3 23:01:29 10° WNW 23:02:17 12° WNW 23:02:17 12° WNW
Cosmos 1703 4.2 23:10:38 29° NNW 23:10:38 29° NNW 23:12:37 10° N
Tiangong 0.0 23:12:54 20° ESE 23:12:54 20° ESE 23:14:02 10° ESE
Cosmos 2227 Rocket 4.0 23:11:04 16° W 23:13:22 21° NW 23:17:35 10° N
USA 281 4.2 23:07:36 10° SE 23:13:47 46° ENE 23:20:00 10° NNW
ALOS 3.9 23:09:59 10° NE 23:13:50 27° E 23:16:28 16° SE
ADEOS Rocket 3.4 23:11:38 10° NNE 23:19:19 82° WNW 23:22:56 33° SSW
Meteor 1-22 Rocket 4.2 23:14:38 10° NNW 23:20:19 63° W 23:22:06 41° SSW
Cosmos 1867 4.5 23:17:35 10° NNW 23:22:55 50° NE 23:28:12 10° SE
Cosmos 2263 Rocket 3.6 23:20:54 21° W 23:22:58 26° NW 23:27:35 10° N
BREEZE-M DEB (TANK) 3.3 23:23:10 17° WNW 23:25:33 89° SSW 23:35:10 10° ESE
SeaSat 1 4.5 23:28:37 13° WNW 23:28:37 13° WNW 23:29:31 10° WNW
Cosmos 2227 4.2 23:24:20 37° S 23:26:40 78° ESE 23:32:25 10° NNE
MOZ.5/SAFIR/RUBIN 5/SL-8 3.9 23:25:30 23° SSE 23:28:17 72° ENE 23:32:52 10° N
USA 81 3.9 23:25:57 10° N 23:31:14 83° W 23:33:51 31° S
Geosat FO 4.5 23:30:54 10° NE 23:33:14 52° E 23:33:14 52° E
ACS3 Solar Sail 3.5 23:31:16 10° NNW 23:35:04 18° WNW 23:37:20 14° W
Cosmos 1633 Rocket 2.9 23:30:51 10° NNW 23:35:08 68° W 23:36:21 44° SSW
Cosmos 1470 Rocket 3.5 23:32:23 10° N 23:36:46 81° E 23:39:09 26° SSE
ADEOS II 3.3 23:32:15 10° NNE 23:37:04 36° E 23:41:26 12° SSE
Cosmos 1943 3.1 23:31:54 10° NNW 23:37:31 75° WSW 23:42:31 13° SSE
NOSS 2-2 (E) 2.8 23:37:09 62° S 23:37:35 73° ESE 23:40:40 10° NE
Meteor 1-23 Rocket 4.2 23:40:58 31° SSW 23:43:46 71° W 23:49:27 10° N
ATLAS 2AS CENTAUR R/B 2.6 23:38:19 10° NW 23:45:08 88° WSW 23:51:58 10° SSE
Meteor 1-12 Rocket 4.4 23:41:38 10° N 23:47:20 72° E 23:52:56 10° SSE
Cosmos 2298 Rocket 4.0 23:43:20 10° NNW 23:48:36 68° WSW 23:52:59 15° S
Cosmos 2285 Rocket 4.0 23:42:29 10° NNW 23:48:50 86° ENE 23:55:10 10° SSE
Resurs 1-4 Rocket 2.2 23:43:44 10° NNE 23:49:00 73° ESE 23:52:31 21° S
Cosmos 1844 Rocket 2.7 23:50:47 30° SW 23:53:36 66° WNW 23:59:10 10° NNE
Okean 2 3.2 23:54:00 39° SSW 23:55:16 66° W 23:59:04 10° N
